When you browse on this site, cookies collect data to enhance your experience and personalize the content and advertising you see.
Visit our Privacy Policy to learn more. By continuing to use the site, you agree to this use of cookies and data.
  • In Romania
  • List of Countries
  • For 7 days
  • Water Temperature
  • Weather Map
  • Weather Widgets
  • user-avatar
    Login

    Hourly Weather Venice

    Today, 13 November, Wednesday

    Time Temperature Precipitation Wind Pressure Humidity
    00:00 +10°C° 0.5 mm 6 mps 747 mmHg 86%
    01:00 +11°C° 0.5 mm 4 mps 748 mmHg 87%
    02:00 +11°C° 0 mm 4 mps 747 mmHg 87%
    03:00 +10°C° 0 mm 4 mps 747 mmHg 88%
    04:00 +9°C° 0 mm 5 mps 747 mmHg 88%
    05:00 +10°C° 0.7 mm 4 mps 747 mmHg 89%
    06:00 +10°C° 0.7 mm 4 mps 747 mmHg 90%
    07:00 +10°C° 0.7 mm 4 mps 746 mmHg 91%
    08:00 +10°C° 0.7 mm 4 mps 747 mmHg 91%
    09:00 +8°C° 0.7 mm 5 mps 747 mmHg 90%
    10:00 +8°C° 0.7 mm 6 mps 747 mmHg 90%
    11:00 +8°C° 0.1 mm 5 mps 747 mmHg 85%
    12:00 +8°C° 0.1 mm 4 mps 748 mmHg 81%
    13:00 +10°C° 0.1 mm 3 mps 748 mmHg 76%
    14:00 +9°C° 0.1 mm 3 mps 748 mmHg 76%
    15:00 +9°C° 0.1 mm 3 mps 749 mmHg 76%
    16:00 +9°C° 0.1 mm 3 mps 749 mmHg 76%
    17:00 +9°C° 0 mm 3 mps 750 mmHg 78%
    18:00 +8°C° 0 mm 3 mps 751 mmHg 80%
    19:00 +8°C° 0 mm 3 mps 752 mmHg 81%
    20:00 +8°C° 0 mm 3 mps 753 mmHg 81%
    21:00 +7°C° 0 mm 3 mps 754 mmHg 82%
    22:00 +7°C° 0 mm 3 mps 754 mmHg 82%
    23:00 +7°C° 0 mm 3 mps 755 mmHg 81%

    Tomorrow, 14 November, Thursday

    Time Temperature Precipitation Wind Pressure Humidity
    00:00 +7°C° 0 mm 3 mps 755 mmHg 80%
    01:00 +7°C° 0 mm 3 mps 755 mmHg 79%
    02:00 +7°C° 0 mm 3 mps 755 mmHg 77%
    03:00 +5°C° 0 mm 3 mps 755 mmHg 76%
    04:00 +5°C° 0 mm 4 mps 755 mmHg 74%
    05:00 +5°C° 0 mm 4 mps 756 mmHg 75%
    06:00 +5°C° 0 mm 4 mps 756 mmHg 75%
    07:00 +4°C° 0 mm 4 mps 756 mmHg 76%
    08:00 +5°C° 0 mm 4 mps 756 mmHg 74%
    09:00 +7°C° 0 mm 4 mps 756 mmHg 72%
    10:00 +8°C° 0 mm 4 mps 756 mmHg 70%
    11:00 +8°C° 0 mm 4 mps 756 mmHg 70%
    12:00 +10°C° 0 mm 4 mps 756 mmHg 69%
    13:00 +10°C° 0 mm 4 mps 756 mmHg 69%
    14:00 +10°C° 0 mm 4 mps 756 mmHg 69%
    15:00 +11°C° 0 mm 4 mps 756 mmHg 70%
    16:00 +11°C° 0 mm 4 mps 755 mmHg 71%
    17:00 +10°C° 0 mm 4 mps 756 mmHg 72%
    18:00 +9°C° 0 mm 5 mps 756 mmHg 74%
    19:00 +9°C° 0 mm 5 mps 756 mmHg 76%
    20:00 +9°C° 0.1 mm 5 mps 756 mmHg 77%
    21:00 +9°C° 0.1 mm 5 mps 756 mmHg 77%
    22:00 +9°C° 0.1 mm 6 mps 755 mmHg 78%
    23:00 +9°C° 0.5 mm 6 mps 755 mmHg 80%

    Day after tomorrow, 15 November, Friday

    Time Temperature Precipitation Wind Pressure Humidity
    00:00 +10°C° 0.5 mm 6 mps 754 mmHg 81%
    01:00 +10°C° 0.5 mm 6 mps 754 mmHg 83%
    02:00 +11°C° 0.8 mm 7 mps 753 mmHg 83%
    03:00 +11°C° 0.8 mm 7 mps 753 mmHg 83%
    04:00 +12°C° 0.8 mm 8 mps 752 mmHg 83%
    05:00 +12°C° 0.2 mm 8 mps 753 mmHg 80%
    06:00 +13°C° 0.2 mm 9 mps 753 mmHg 78%
    07:00 +13°C° 0.2 mm 9 mps 753 mmHg 76%
    08:00 +13°C° 0.5 mm 8 mps 752 mmHg 81%
    09:00 +12°C° 0.5 mm 7 mps 753 mmHg 83%
    10:00 +13°C° 0.5 mm 6 mps 753 mmHg 85%
    11:00 +13°C° 1.8 mm 5 mps 753 mmHg 88%
    12:00 +12°C° 1.8 mm 5 mps 753 mmHg 91%
    13:00 +12°C° 1.8 mm 4 mps 753 mmHg 94%
    14:00 +12°C° 0.8 mm 5 mps 753 mmHg 91%
    15:00 +13°C° 0.8 mm 6 mps 752 mmHg 87%
    16:00 +13°C° 0.8 mm 8 mps 752 mmHg 84%
    17:00 +12°C° 2.8 mm 7 mps 752 mmHg 86%
    18:00 +10°C° 2.8 mm 6 mps 753 mmHg 89%
    19:00 +9°C° 2.8 mm 6 mps 753 mmHg 91%
    20:00 +9°C° 0.3 mm 5 mps 754 mmHg 89%
    21:00 +8°C° 0.3 mm 4 mps 755 mmHg 86%
    22:00 +9°C° 0.3 mm 3 mps 755 mmHg 84%
    23:00 +9°C° 0 mm 2 mps 756 mmHg 83%

    16 November, Saturday

    Time Temperature Precipitation Wind Pressure Humidity
    00:00 +10°C° 0 mm 1 mps 757 mmHg 82%
    01:00 +9°C° 0 mm 0 mps 757 mmHg 81%
    02:00 +10°C° 0 mm 1 mps 758 mmHg 82%
    03:00 +9°C° 0 mm 2 mps 758 mmHg 83%
    04:00 +9°C° 0 mm 3 mps 758 mmHg 84%
    05:00 +9°C° 0.2 mm 3 mps 759 mmHg 85%
    06:00 +9°C° 0.2 mm 3 mps 759 mmHg 85%
    07:00 +9°C° 0.2 mm 3 mps 760 mmHg 85%
    08:00 +10°C° 0.2 mm 3 mps 760 mmHg 83%
    09:00 +10°C° 0.2 mm 3 mps 761 mmHg 81%
    10:00 +11°C° 0.2 mm 4 mps 761 mmHg 78%
    11:00 +12°C° 0.3 mm 3 mps 761 mmHg 77%
    12:00 +12°C° 0.3 mm 3 mps 760 mmHg 75%
    13:00 +13°C° 0.3 mm 3 mps 760 mmHg 73%
    14:00 +12°C° 1.4 mm 3 mps 760 mmHg 78%
    15:00 +13°C° 1.4 mm 2 mps 760 mmHg 82%
    16:00 +12°C° 1.4 mm 2 mps 760 mmHg 86%
    17:00 +11°C° 0.9 mm 3 mps 760 mmHg 86%
    18:00 +10°C° 0.9 mm 4 mps 759 mmHg 86%
    19:00 +9°C° 0.9 mm 5 mps 759 mmHg 86%
    20:00 +9°C° 0.2 mm 5 mps 759 mmHg 84%
    21:00 +9°C° 0.2 mm 5 mps 758 mmHg 83%
    22:00 +9°C° 0.2 mm 6 mps 758 mmHg 81%
    23:00 +9°C° 0.7 mm 5 mps 757 mmHg 84%

    17 November, Sunday

    Time Temperature Precipitation Wind Pressure Humidity
    00:00 +9°C° 0.7 mm 5 mps 756 mmHg 87%
    01:00 +9°C° 0.7 mm 5 mps 755 mmHg 89%
    02:00 +10°C° 1 mm 6 mps 755 mmHg 89%
    03:00 +10°C° 1 mm 6 mps 754 mmHg 88%
    04:00 +11°C° 1 mm 7 mps 754 mmHg 88%
    05:00 +11°C° 1 mm 7 mps 754 mmHg 88%
    06:00 +11°C° 1 mm 7 mps 753 mmHg 88%
    07:00 +12°C° 1 mm 8 mps 753 mmHg 87%
    08:00 +12°C° 2.6 mm 9 mps 753 mmHg 87%
    09:00 +12°C° 2.6 mm 10 mps 752 mmHg 86%
    10:00 +12°C° 2.6 mm 11 mps 752 mmHg 86%
    11:00 +13°C° 5.5 mm 11 mps 751 mmHg 86%
    12:00 +13°C° 5.5 mm 11 mps 750 mmHg 86%
    13:00 +13°C° 5.5 mm 12 mps 749 mmHg 86%
    14:00 +13°C° 2.5 mm 11 mps 749 mmHg 84%
    15:00 +13°C° 2.5 mm 10 mps 749 mmHg 83%
    16:00 +13°C° 2.5 mm 10 mps 749 mmHg 81%
    17:00 +13°C° 1.3 mm 9 mps 749 mmHg 81%
    18:00 +13°C° 1.3 mm 9 mps 749 mmHg 80%
    19:00 +13°C° 1.3 mm 9 mps 749 mmHg 79%
    20:00 +13°C° 0.8 mm 8 mps 750 mmHg 79%
    21:00 +13°C° 0.8 mm 8 mps 750 mmHg 78%
    22:00 +14°C° 0.8 mm 7 mps 750 mmHg 77%
    23:00 +14°C° 1 mm 7 mps 751 mmHg 81%

    18 November, Monday

    Time Temperature Precipitation Wind Pressure Humidity
    00:00 +12°C° 1 mm 7 mps 751 mmHg 85%
    01:00 +12°C° 1 mm 7 mps 752 mmHg 89%
    02:00 +11°C° 0.2 mm 6 mps 752 mmHg 89%
    03:00 +11°C° 0.2 mm 6 mps 753 mmHg 89%
    04:00 +11°C° 0.2 mm 6 mps 754 mmHg 89%
    05:00 +10°C° 0.1 mm 5 mps 754 mmHg 89%
    06:00 +11°C° 0.1 mm 4 mps 755 mmHg 89%
    07:00 +11°C° 0.1 mm 3 mps 756 mmHg 89%
    08:00 +11°C° 0 mm 3 mps 756 mmHg 87%
    09:00 +13°C° 0 mm 2 mps 757 mmHg 85%
    10:00 +13°C° 0 mm 2 mps 758 mmHg 83%
    11:00 +14°C° 0 mm 2 mps 758 mmHg 81%
    12:00 +14°C° 0 mm 2 mps 758 mmHg 78%
    13:00 +15°C° 0 mm 1 mps 758 mmHg 76%
    14:00 +14°C° 0 mm 2 mps 758 mmHg 77%
    15:00 +14°C° 0 mm 2 mps 758 mmHg 78%
    16:00 +14°C° 0 mm 2 mps 758 mmHg 79%
    17:00 +13°C° 0.2 mm 3 mps 758 mmHg 80%
    18:00 +12°C° 0.2 mm 3 mps 759 mmHg 81%
    19:00 +12°C° 0.2 mm 4 mps 759 mmHg 82%
    20:00 +12°C° 1.9 mm 4 mps 759 mmHg 86%
    21:00 +12°C° 1.9 mm 4 mps 759 mmHg 89%
    22:00 +12°C° 1.9 mm 4 mps 759 mmHg 92%
    23:00 +12°C° 1.6 mm 4 mps 759 mmHg 92%
    Show more